Location: Les Gen�tes
(46.3104°N, 1.5969°E)
Time: 18:50:39
(UTC+00:00)

Cosmos 2297 Rocket - Pass Details

Date: 01 June 2020
Orbit: 841 x 842 km, 71.0° (Epoch: 01 July)

Event Time Altitude Azimuth Distance (km) Brightness Sun altitude
Rises 22:54:25 0° 340° (NNW) 3,407 6.9 -20.3°
Reaches altitude 10° 22:57:28 10° 355° (N) 2,469 5.8 -20.4°
Maximum altitude 23:01:46 22° 45° (NE) 1,778 4.2 -20.5°
Drops below altitude 10° 23:06:03 10° 95° (E) 2,460 4.5 -20.7°
Enters shadow 23:07:08 - 102° (ESE) 2,772 4.7 -20.7°
